Location: Oslo
(59.9170°N, 10.7500°E)
Time: 22:50:16
(UTC+02:00)

ISS - Pass Details

Date: 27 March 2019
Orbit: 408 x 410 km, 51.6° (Epoch: 21 April)

Event Time Altitude Azimuth Distance (km) Brightness Sun altitude
Rises 21:45:07 0° 255° (WSW) 2,338 0.4 -20.2°
Reaches altitude 10° 21:47:38 10° 236° (SW) 1,476 -0.9 -20.5°
Enters shadow 21:48:02 12° 230° (SW) 1,361 -1.2 -20.5°
